Terminal Aerodrome Forecast
Issued by NWS Tallahassee, FL

Home | Current Version | Previous Version | Text Only | Print | Product List | Glossary On
Versions: 1 2 3 4 5 6 7 8 9 10 11 12 13 14 15 16 17 18 19 20 21
000
FTUS42 KTAE 192300
TAFTLH
TAF
KTLH 192333Z 2000/2024 10008KT P6SM VCTS SCT030CB BKN050 BKN200
     FM200400 00000KT P6SM SCT250
     FM200800 00000KT 3SM BR SCT002
      TEMPO 2009/2012 1SM BR BKN002
     FM201300 28007KT P6SM FEW030
     FM201900 27009KT P6SM VCTS SCT040CB=

USA.gov is the U.S. government's official web portal to all federal, state and local government web resources and services.